This is the latest recevied weather packets stored in our database for station/object EGFF. If no packets are shown the sender has not sent any weather packets the latest 10 day(s).
| Time | Temp. | Humidity | Pressure | Rain* | Wind** | Luminosity | Snow |
|---|---|---|---|---|---|---|---|
| 1787849603 | 21.67° C | 68% | 1007 hPa | - | - | - | - |
| 1787849003 | 21.67° C | 68% | 1007 hPa | - | - | - | - |
| 1787848402 | 21.67° C | 68% | 1007 hPa | - | - | - | - |
| 1787847804 | 22.78° C | 64% | 1007 hPa | - | - | - | - |
| 1787847202 | 22.78° C | 64% | 1007 hPa | - | - | - | - |
| 1787846603 | 22.78° C | 64% | 1007 hPa | - | - | - | - |
| 1787846001 | 22.78° C | 69% | 1006 hPa | - | - | - | - |
| 1787845403 | 22.78° C | 69% | 1006 hPa | - | - | - | - |
| 1787844802 | 22.78° C | 69% | 1006 hPa | - | - | - | - |
| 1787844200 | 23.89° C | 64% | 1026 hPa | - | - | - | - |
| 1787843601 | 23.89° C | 64% | 1026 hPa | - | - | - | - |
| 1787842403 | 22.78° C | 69% | 1006 hPa | - | - | - | - |
| 1787841798 | 22.78° C | 69% | 1006 hPa | - | - | - | - |
| 1787841202 | 22.78° C | 69% | 1006 hPa | - | - | - | - |
| 1787840599 | 23.89° C | 64% | 1006 hPa | - | - | - | - |
| 1787839999 | 23.89° C | 64% | 1006 hPa | - | - | - | - |
| 1787839402 | 23.89° C | 64% | 1006 hPa | - | - | - | - |
| 1787838798 | 25° C | 61% | 1026 hPa | - | - | - | - |
| 1787838201 | 25° C | 61% | 1027 hPa | - | - | - | - |
| 1787837601 | 25° C | 61% | 1027 hPa | - | - | - | - |
| 1787837001 | 23.89° C | 64% | 1006 hPa | - | - | - | - |
| 1787836401 | 23.89° C | 64% | 1006 hPa | - | - | - | - |
| 1787835801 | 23.89° C | 64% | 1006 hPa | - | - | - | - |
| 1787835201 | 23.89° C | 69% | 1006 hPa | - | - | - | - |
| 1787834601 | 23.89° C | 69% | 1006 hPa | - | - | - | - |
* Rain since midnight (hover to see other rain measurements)
** Current wind speed in m/s (hover to see current wind gust speed)